Regional Weather Roundup
Issued by NWS

Home | Current Version | Previous Version | Text Only | Print | Product List | Glossary Off
Versions: 1 2 3 4 5 6 7 8 9 10 11 12 13 14 15 16 17 18 19 20 21 22 23 24 25 26 27 28 29 30 31 32 33 34 35 36 37 38 39 40 41 42 43 44 45 46 47 48 49 50

000
ASUS45 KCYS 010110
RWRWY

WYOMING REGIONAL WEATHER ROUNDUP
NATIONAL WEATHER SERVICE CHEYENNE WY
600 PM MST SAT FEB 28 2015

NOTE:  "FAIR" INDICATES FEW OR NO CLOUDS BELOW 12,000 FEET
WITH NO SIGNIFICANT WEATHER AND/OR OBSTRUCTIONS TO VISIBILITY.

WYZ001-010200-
YELLOWSTONE NATIONAL PARK

CITY           SKY/WX    TMP DP  RH WIND       PRES   REMARKS
LK YELLOWSTONE   N/A     19   1  45 VRB5      29.83R WCI  12
W YELLOWSTONE  NOT AVBL

$$
WYZ002>013-054>058-071-098>099-010200-
NORTHERN WYOMING

CITY           SKY/WX    TMP DP  RH WIND       PRES   REMARKS
JACKSON        CLEAR     21  12  68 CALM      29.81R
CODY           FAIR      16  10  79 N7        30.01R WCI   6
GREYBULL       CLOUDY    27   8  44 W10       30.04R WCI  17
WORLAND        CLOUDY    24  10  55 CALM      30.03R
SHERIDAN       MOCLDY    16   8  71 W5        30.09R WCI   9
BUFFALO        FAIR      11   5  77 NW3       30.03R
GILLETTE       FAIR      14   7  73 NW6       30.06R WCI   5
HULETT         CLOUDY    18  10  73 NW5       30.08R WCI  11
NEWCASTLE      FAIR      19   9  63 NW10      30.06R WCI   8

$$
WYZ014>020-022>026-101>103-010200-
CENTRAL WYOMING

CITY           SKY/WX    TMP DP  RH WIND       PRES   REMARKS
BIG PINEY      FAIR      23  14  68 NE12      29.82R WCI  12
PINEDALE       CLOUDY    19  12  73 W6        29.83R WCI  11
DUBOIS         CLOUDY    14  10  85 SE9       29.85R WCI   2
LANDER         CLOUDY    19   9  65 NW6       29.95R WCI  11
RIVERTON       CLOUDY    20   9  62 CALM      29.97R
CASPER         CLOUDY    18   9  68 NE12      29.97R WCI   5
DOUGLAS        CLOUDY    20  10  65 NE5       30.01R WCI  13

$$
WYZ021-027>030-104>119-010200-
SOUTHERN WYOMING

CITY           SKY/WX    TMP DP  RH WIND       PRES   REMARKS
EVANSTON       LGT SNOW  25  22  88 E9        29.77R FOG     WCI  15
FORT BRIDGER   CLOUDY    29  20  68 E9        29.80R WCI  21
ROCK SPRINGS   CLOUDY    18   9  68 NE21      29.82R WCI   1
DIXON          CLOUDY    32  16  52 NE8       29.78R WCI  25
RAWLINS        FAIR      19   8  62 NE15      29.84R WCI   5
SARATOGA       CLOUDY    27  16  63 W9        29.79R WCI  17
LARAMIE        MOCLDY    15   8  73 SE21G28   29.83R WCI  -2
CHEYENNE       CLOUDY    20  10  65 E8        29.92R WCI  10
TORRINGTON     CLOUDY    25   9  50 NE7       30.02R WCI  17
PINE BLUFFS    MOCLDY    23  12  63 E7        29.97S WCI  15

$$



USA.gov is the U.S. government's official web portal to all federal, state and local government web resources and services.